Overview Statistics Trail Chart Weather Telemetry Raw packets
 

This is the latest recevied weather packets stored in our database for station/object W0WFX-2. If no packets are shown the sender has not sent any weather packets the latest 10 day(s).

<< 13 14 15 16 17 18 19 >>
Time Temp. Humidity Pressure Rain* Wind** Luminosity Snow
1788548392 36.67° C 43% 1013.7 hPa 0 mm - 717 W/m² -
1788548088 36.11° C 43% 1013.8 hPa 0 mm - 714 W/m² -
1788547783 36.11° C 44% 1013.7 hPa 0 mm - 720 W/m² -
1788547483 36.67° C 44% 1013.7 hPa 0 mm - 724 W/m² -
1788547178 36.67° C 44% 1013.8 hPa 0 mm - 724 W/m² -
1788546873 36.11° C 43% 1013.6 hPa 0 mm - 731 W/m² -
1788546569 36.67° C 44% 1014 hPa 0 mm - 730 W/m² -
1788546264 36.11° C 45% 1013.7 hPa 0 mm - 729 W/m² -
1788545959 36.11° C 44% 1014 hPa 0 mm - 734 W/m² -
1788545654 36.11° C 44% 1014 hPa 0 mm - 732 W/m² -
1788545349 36.11° C 44% 1014 hPa 0 mm - 734 W/m² -
1788545044 36.11° C 45% 1014.2 hPa 0 mm - 730 W/m² -
1788544744 36.11° C 44% 1014 hPa 0 mm - 729 W/m² -
1788544443 35.56° C 46% 1014.3 hPa 0 mm - 724 W/m² -
1788544143 36.11° C 44% 1014.2 hPa 0 mm - 728 W/m² -
1788543838 35.56° C 45% 1014.2 hPa 0 mm - 724 W/m² -
1788543534 36.11° C 46% 1014.3 hPa 0 mm - 724 W/m² -
1788543229 36.11° C 45% 1014.4 hPa 0 mm - 717 W/m² -
1788542941 35.56° C 46% 1014.4 hPa 0 mm - 707 W/m² -
1788542624 35° C 47% 1014.4 hPa 0 mm - 707 W/m² -
1788542319 35.56° C 45% 1014.6 hPa 0 mm - 707 W/m² -
1788542014 35.56° C 46% 1014.6 hPa 0 mm - 700 W/m² -
1788541711 35° C 48% 1014.7 hPa 0 mm - 693 W/m² -
1788541406 35° C 47% 1014.7 hPa 0 mm - 690 W/m² -
1788541101 35° C 49% 1014.5 hPa 0 mm - 682 W/m² -

* Rain latest hour (hover to see other rain measurements)
** Current wind speed in m/s (hover to see current wind gust speed)